IRIDIUM 146

Last updated on Tue Sep 22 2026 00:03:21 GMT+0000 (Coordinated Universal Time)

1 43254U 18030F 26264.38429604 .00000059 00000+0 14161-4 0 9996 2 43254 86.3914 250.1754 0002173 87.6674 272.4770 14.34217528443924
UTC large
Height (km)
Speed (km/s)
/
Latitude / Longitude
Inclination (degrees)
Orbital Period (minutes)
Azimuth
Elevation
Range (km)
Doppler Factor

Next 0 passes for location: London (51.5072 / 0.1276)

No passes found over London.
IRIDIUM 146